N6YV Weather Reports


Display with metric or nautical units.
time (UTC)temp
F
wind
direction
speed
MPH
gust
MPH
rain 1hr
in
rain 24hr
in
rain mn
in
humidity
%
barometer
mb
20260902130056 48 71 2.0 0.0 0.00 0.00 0.00 50 1004.9
20260902124547 49 71 1.0 0.0 0.00 0.00 0.00 49 1004.8
20260902123054 49 71 2.0 0.0 0.00 0.00 0.00 48 1004.6
20260902121544 49 65 2.0 0.0 0.00 0.00 0.00 48 1004.6
20260902120044 49 65 0.0 0.0 0.00 0.00 0.00 47 1004.6
20260902114543 49 67 2.0 0.0 0.00 0.00 0.00 48 1004.6
20260902113045 49 67 1.0 0.0 0.00 0.00 0.00 45 1004.6
20260902111536 51 67 1.0 0.0 0.00 0.00 0.00 43 1004.6
20260902110039 51 67 2.0 0.0 0.00 0.00 0.00 42 1004.7
20260902104531 52 136 2.0 0.0 0.00 0.00 0.00 41 1004.7
20260902103031 53 257 4.0 0.0 0.00 0.00 0.00 41 1004.3
20260902101528 54 309 3.0 0.0 0.00 0.00 0.00 38 1004.5
20260902100026 55 214 6.0 0.0 0.00 0.00 0.00 38 1004.5
20260902094522 56 205 7.0 0.0 0.00 0.00 0.00 37 1004.1
20260902093021 55 184 8.0 0.0 0.00 0.00 0.00 38 1004.2
20260902091521 55 169 8.0 0.0 0.00 0.00 0.00 38 1004.6
20260902090021 55 161 9.0 0.0 0.00 0.00 0.00 37 1004.5
20260902084523 55 171 8.0 0.0 0.00 0.00 0.00 33 1004.4
20260902083016 56 198 9.0 0.0 0.00 0.00 0.00 31 1004.5
20260902081517 55 229 9.0 0.0 0.00 0.00 0.00 30 1004.5
20260902080013 55 254 4.0 0.0 0.00 0.00 0.00 31 1004.6
20260902074508 56 229 6.0 0.0 0.00 0.00 0.00 30 1004.2
20260902073006 57 235 6.0 0.0 0.00 0.00 0.00 33 1004.1
20260902071504 57 225 7.0 0.0 0.00 0.00 0.00 31 1004.0
20260902070001 57 213 9.0 0.0 0.00 0.00 0.00 31 1003.5
20260902064609 57 232 7.0 0.0 0.00 0.00 0.00 32 1003.5
20260902063102 57 217 7.0 0.0 0.00 0.00 0.00 32 1003.7
20260902060108 58 213 8.0 0.0 0.00 0.00 0.00 33 1003.4
20260902054558 58 258 8.0 0.0 0.00 0.00 0.00 33 1003.4
20260902053106 58 236 9.0 0.0 0.00 0.00 0.00 33 1003.4
20260902051559 59 240 11.0 0.0 0.00 0.00 0.00 33 1003.4
20260902050108 58 227 9.0 0.0 0.00 0.00 0.00 34 1003.2
20260902044554 58 248 6.0 0.0 0.00 0.00 0.00 33 1003.0
20260902043053 59 214 5.0 0.0 0.00 0.00 0.00 31 1002.9
20260902041551 60 240 7.0 0.0 0.00 0.00 0.00 30 1002.8
20260902040050 60 237 5.0 0.0 0.00 0.00 0.00 29 1002.4
20260902034549 60 217 6.0 0.0 0.00 0.00 0.00 28 1002.2
20260902033047 61 219 7.0 0.0 0.00 0.00 0.00 29 1002.0
20260902031546 61 240 9.0 0.0 0.00 0.00 0.00 29 1001.8
20260902030048 62 193 8.0 0.0 0.00 0.00 0.00 29 1001.6
20260902024545 62 248 6.0 0.0 0.00 0.00 0.00 27 1001.5
20260902023051 63 217 5.0 0.0 0.00 0.00 0.00 28 1001.3
20260902021545 64 251 6.0 0.0 0.00 0.00 0.00 27 1001.3
20260902020043 65 250 7.0 0.0 0.00 0.00 0.00 26 1001.1
20260902014548 66 255 7.0 0.0 0.00 0.00 0.00 26 1000.9
20260902013043 67 152 7.0 0.0 0.00 0.00 0.00 24 1001.0
20260902011549 69 215 8.0 0.0 0.00 0.00 0.00 23 1001.1
20260902010043 69 185 10.0 0.0 0.00 0.00 0.00 22 1001.0
20260902004540 69 274 11.0 0.0 0.00 0.00 0.00 22 1001.2
20260902003038 70 224 12.0 0.0 0.00 0.00 0.00 20 1001.2
20260902001542 71 240 14.0 0.0 0.00 0.00 0.00 19 1000.9
20260902000045 71 254 16.0 0.0 0.00 0.00 0.00 17 1000.7
20260901234537 73 234 16.0 0.0 0.00 0.00 0.00 16 1000.6
20260901233036 73 258 13.0 0.0 0.00 0.00 0.00 18 1000.5
20260901231536 72 245 13.0 0.0 0.00 0.00 0.00 19 1000.4
20260901230035 72 251 11.0 0.0 0.00 0.00 0.00 19 1000.3
20260901224535 73 282 13.0 0.0 0.00 0.00 0.00 18 1000.3
20260901223034 73 251 15.0 0.0 0.00 0.00 0.00 17 1000.4
20260901221538 74 277 11.0 0.0 0.00 0.00 0.00 16 1000.2
20260901220036 74 265 14.0 0.0 0.00 0.00 0.00 16 1000.2
20260901214547 74 267 12.0 0.0 0.00 0.00 0.00 15 1000.2
20260901213031 75 259 12.0 0.0 0.00 0.00 0.00 14 1000.3
20260901211532 76 222 12.0 0.0 0.00 0.00 0.00 15 1000.1
20260901210030 75 267 15.0 0.0 0.00 0.00 0.00 15 1000.4
20260901204533 76 227 11.0 0.0 0.00 0.00 0.00 17 1000.4
20260901203027 75 273 13.0 0.0 0.00 0.00 0.00 17 1000.5
20260901201526 75 225 10.0 0.0 0.00 0.00 0.00 17 1000.5
20260901200025 74 225 11.0 0.0 0.00 0.00 0.00 16 1000.5
20260901194524 75 250 10.0 0.0 0.00 0.00 0.00 18 1000.8
20260901193023 75 272 10.0 0.0 0.00 0.00 0.00 17 1001.0
20260901191535 75 203 11.0 0.0 0.00 0.00 0.00 16 1001.3
20260901190021 74 236 10.0 0.0 0.00 0.00 0.00 16 1001.3
20260901184521 74 285 10.0 0.0 0.00 0.00 0.00 16 1001.3
20260901183028 74 245 11.0 0.0 0.00 0.00 0.00 16 1001.4
20260901181517 73 232 11.0 0.0 0.00 0.00 0.00 17 1001.3
20260901180015 73 227 12.0 0.0 0.00 0.00 0.00 18 1001.4
20260901174513 72 234 11.0 0.0 0.00 0.00 0.00 19 1001.4
20260901173009 71 177 10.0 0.0 0.00 0.00 0.00 23 1001.2
20260901171507 71 198 10.0 0.0 0.00 0.00 0.00 24 1001.3
20260901170005 70 200 10.0 0.0 0.00 0.00 0.00 25 1001.1
20260901164504 70 239 10.0 0.0 0.00 0.00 0.00 25 1001.3
20260901163003 69 221 10.0 0.0 0.00 0.00 0.00 25 1001.2
20260901161505 69 159 8.0 0.0 0.00 0.00 0.00 26 1001.3
20260901154617 68 198 5.0 0.0 0.00 0.00 0.00 27 1001.5
20260901153053 67 140 4.0 0.0 0.00 0.00 0.00 27 1001.7
20260901151550 66 184 2.0 0.0 0.00 0.00 0.00 28 1001.7
20260901150055 64 165 1.0 0.0 0.00 0.00 0.00 37 1001.7
20260901144544 63 190 1.0 0.0 0.00 0.00 0.00 32 1001.7
20260901143040 60 192 1.0 0.0 0.00 0.00 0.00 40 1001.6
20260901141550 57 192 2.0 0.0 0.00 0.00 0.00 42 1001.5
20260901140040 54 192 4.0 0.0 0.00 0.00 0.00 49 1001.3
20260901134536 53 246 5.0 0.0 0.00 0.00 0.00 51 1001.3
20260901133033 53 248 4.0 0.0 0.00 0.00 0.00 51 1001.2
20260901131532 53 252 4.0 0.0 0.00 0.00 0.00 52 1001.1